Stations météo

Publicité
Limoges, France (7434): Température de l'air & dewpoint: 17.04.2019 04:00:00 - 23.04.2019 04:00:00 (CEST)Limoges, France (7434): Température de l'air 5cm: 17.04.2019 04:00:00 - 23.04.2019 04:00:00 (CEST)Limoges, France (7434): Température de l'air -20cm & Température de l'air -100cm: 17.04.2019 04:00:00 - 23.04.2019 04:00:00 (CEST)Limoges, France (7434): Vitesse du vent & gusts: 17.04.2019 04:00:00 - 23.04.2019 04:00:00 (CEST)Limoges, France (7434): Direction du vent: 17.04.2019 04:00:00 - 23.04.2019 04:00:00 (CEST)Limoges, France (7434): reduced air pressure: 17.04.2019 04:00:00 - 23.04.2019 04:00:00 (CEST)Limoges, France (7434): visibility: 17.04.2019 04:00:00 - 23.04.2019 04:00:00 (CEST)Limoges, France (7434): Ensoleillement: 17.04.2019 04:00:00 - 23.04.2019 04:00:00 (CEST)Limoges, France (7434): Quantités de précipitations: 17.04.2019 04:00:00 - 23.04.2019 04:00:00 (CEST)
Date & Time tt [°C] td [°C] tt 5cm [°C] tt -20cm [°C] tt -100cm [°C] ff [km/h] ff [knt] fx [km/h] fx [knt] dd ppp [hPa] vv [km] sd [min] rr [mm]
23.04.2019 04:00:00 11,9 5,5 9,2 14,1 12,1 10 6 17 9 SSE 998,4 33 0 0,0
23.04.2019 03:00:00 12,6 5,5 10,0 14,2 12,1 9 5 14 8 S 998,6 38 0 0,0
23.04.2019 02:00:00 13,2 6,3 10,7 14,2 12,1 5 3 11 6 S 999,3 38 0 0,0
23.04.2019 01:00:00 14,1 6,2 10,9 14,2 12,1 3 2 6 4 S 999,2 44 0 0,0
23.04.2019 00:00:00 14,5 5,3 10,3 14,3 12,1 5 3 9 5 NE 999,3 49 0 0,0
22.04.2019 23:00:00 14,6 5,4 9,6 14,3 12,1 4 2 7 4 SSW 999,5 53 0 0,0
22.04.2019 22:00:00 14,2 6,5 9,8 14,3 12,0 8 4 12 6 NNW 999,6 50 0 0,0
22.04.2019 21:00:00 14,9 6,5 10,9 14,2 12,1 7 4 10 6 NNW 999,2 20 0 0,0
22.04.2019 20:00:00 16,7 5,9 14,1 14,2 12,0 5 3 10 5 N 999,2 50 0 0,0
22.04.2019 19:00:00 17,8 6,6 17,5 14,1 12,0 7 4 11 6 WNW 999,3 44 7 0,0
22.04.2019 18:00:00 17,7 5,9 17,5 13,9 12,0 9 5 23 13 SW 1000,0 28 0 0,0
22.04.2019 17:00:00 17,6 7,3 14,7 13,8 12,0 17 9 29 16 SSW 1000,8 22 0 0,0
22.04.2019 16:00:00 20,3 7,3 20,9 13,7 12,0 8 4 18 10 S 1000,2 41 0 0,0
22.04.2019 15:00:00 20,7 6,2 24,4 13,6 12,0 10 5 29 16 SSE 1000,8 20 11 0,0
22.04.2019 14:00:00 20,6 5,4 26,9 13,6 12,0 8 4 22 12 ENE 1001,4 20 60 0,0
22.04.2019 13:00:00 19,0 6,5 21,3 13,6 12,0 9 5 25 13 E 1002,7 19 50 0,0
22.04.2019 12:00:00 17,1 7,4 16,7 13,6 11,9 16 8 27 15 ENE 1004,0 49 15 0,0
22.04.2019 11:00:00 14,7 7,7 12,9 13,6 11,9 16 8 24 13 ENE 1005,2 47 0 0,0
22.04.2019 10:00:00 13,1 6,7 12,7 13,7 11,9 19 10 31 17 ENE 1006,3 53 0 0,0
22.04.2019 09:00:00 13,2 6,1 12,0 13,7 11,9 20 11 32 17 ENE 1006,4 42 0 0,0
22.04.2019 08:00:00 12,6 5,7 11,0 13,8 11,9 19 11 30 16 NE 1006,9 60 0 0,0
22.04.2019 07:00:00 12,0 6,1 10,9 13,8 11,9 16 9 27 15 ENE 1007,4 60 0 0,0
22.04.2019 06:00:00 12,2 6,0 10,6 13,9 11,9 13 7 17 9 NE 1008,1 60 0 0,0
22.04.2019 05:00:00 11,7 6,2 9,9 14,0 11,9 11 6 19 10 NE 1009,1 60 0 0,0
22.04.2019 04:00:00 11,3 6,4 9,9 14,0 11,9 12 7 17 9 NE 1010,1 60 0 0,0
22.04.2019 03:00:00 11,6 6,9 9,9 14,1 11,9 10 5 19 10 NE 1011,0 60 0 0,0
22.04.2019 02:00:00 11,1 7,8 9,9 14,1 11,9 14 8 22 12 NE 1012,0 53 0 0,0
22.04.2019 01:00:00 10,8 8,7 9,8 14,2 11,9 10 6 16 8 NE 1012,9 26 0 0,0
22.04.2019 00:00:00 11,2 8,6 8,4 14,2 11,9 6 3 10 6 NNE 1013,6 20 0 0,0
21.04.2019 23:00:00 10,5 8,6 7,8 14,2 11,9 5 3 9 5 N 1014,1 6 0 0,0
21.04.2019 22:00:00 11,4 9,3 9,5 14,2 11,8 4 2 10 5 WNW 1014,7 18 0 0,0
21.04.2019 21:00:00 11,8 9,5 10,6 14,2 11,8 8 5 24 13 SE 1015,5 7 0 0,6
21.04.2019 20:00:00 12,3 9,3 10,5 14,2 11,8 13 7 39 21 SSE 1015,4 31 0 3,1
21.04.2019 19:00:00 16,8 7,2 15,5 14,1 11,8 11 6 30 16 SE 1014,3 20 0 0,0
21.04.2019 18:00:00 17,5 5,4 17,4 14,0 11,8 5 3 6 4 NW 1014,2 59 0 0,0
21.04.2019 17:00:00 17,6 3,8 18,4 13,9 11,8 3 2 8 4 SSW 1014,8 58 0 0,0
21.04.2019 16:00:00 18,2 4,4 20,1 13,8 11,8 4 2 11 6 W 1015,0 58 7 0,0
21.04.2019 15:00:00 18,5 7,0 23,9 13,7 11,8 5 3 18 10 ESE 1015,5 52 8 0,0
21.04.2019 14:00:00 17,7 6,5 23,2 13,7 11,8 6 3 13 7 WNW 1016,5 46 17 0,0
21.04.2019 13:00:00 16,6 6,4 18,2 13,7 11,8 6 3 12 6 W 1017,5 20 22 0,0
21.04.2019 12:00:00 14,5 7,3 17,8 13,7 11,7 8 4 18 10 S 1018,7 24 12 0,0
21.04.2019 11:00:00 13,2 7,0 14,4 13,8 11,8 7 4 14 7 SSE 1019,2 32 0 0,0
21.04.2019 10:00:00 11,8 7,3 11,9 13,8 11,7 6 3 14 8 SE 1019,6 38 0 0,0
21.04.2019 09:00:00 10,6 7,7 9,8 13,9 11,7 8 5 13 7 ESE 1020,0 26 0 0,0
21.04.2019 08:00:00 9,8 7,2 8,5 14,0 11,7 5 3 16 9 SSE 1020,0 34 0 0,0
21.04.2019 07:00:00 10,5 6,8 7,8 14,0 11,7 6 4 9 5 SSE 1019,6 47 0 0,0
21.04.2019 06:00:00 10,1 6,6 9,0 14,1 11,7 4 2 9 5 NE 1019,6 40 0 0,0
21.04.2019 05:00:00 11,0 6,7 9,8 14,2 11,7 6 3 10 5 NE 1019,7 42 0 0,0
21.04.2019 04:00:00 11,1 7,0 10,0 14,2 11,7 6 3 12 6 NE 1020,1 40 0 0,0
21.04.2019 03:00:00 11,5 6,8 10,5 14,3 11,6 9 5 14 8 ENE 1020,6 40 0 0,0
21.04.2019 02:00:00 12,3 8,9 8,9 14,3 11,6 8 4 9 5 NE 1020,9 21 0 0,0
21.04.2019 01:00:00 12,0 6,3 8,0 14,4 11,6 2 1 11 6 E 1021,4 52 0 0,0
21.04.2019 00:00:00 15,0 4,9 11,4 14,4 11,6 8 5 16 8 NNE 1020,9 60 0 0,0
20.04.2019 23:00:00 13,8 5,9 8,9 14,4 11,6 9 5 27 15 NNE 1021,7 60 0 0,0
20.04.2019 22:00:00 13,1 8,0 8,8 14,3 11,6 5 3 17 9 WSW 1021,8 50 0 0,0
20.04.2019 21:00:00 15,3 6,8 12,8 14,2 11,6 4 2 22 12 ESE 1021,3 57 0 0,0
20.04.2019 20:00:00 17,0 5,6 16,2 14,1 11,6 15 8 45 24 E 1021,6 58 0 0,0
20.04.2019 19:00:00 19,7 4,6 18,8 14,0 11,6 18 10 35 19 NE 1019,7 44 0 0,0
20.04.2019 18:00:00 20,6 4,6 20,2 13,8 11,5 11 6 27 14 NNE 1019,8 19 34 0,0
20.04.2019 17:00:00 22,3 4,3 23,0 13,6 11,6 13 7 32 18 NNW 1020,0 49 45 0,0
20.04.2019 16:00:00 22,0 3,1 26,5 13,5 11,6 6 3 19 10 WNW 1021,0 50 52 0,0
20.04.2019 15:00:00 21,2 4,3 29,2 13,4 11,5 7 4 22 12 WSW 1022,0 39 60 0,0
20.04.2019 14:00:00 20,0 3,6 27,8 13,4 11,5 9 5 28 15 SW 1022,6 35 60 0,0
20.04.2019 13:00:00 19,2 4,1 22,8 13,4 11,5 14 8 28 15 S 1023,7 33 58 0,0
20.04.2019 12:00:00 18,2 5,1 19,0 13,4 11,5 17 9 27 14 ESE 1024,4 35 42 0,0
20.04.2019 11:00:00 16,3 4,3 14,5 13,5 11,5 7 4 18 10 E 1024,8 20 13 0,0
20.04.2019 10:00:00 13,4 3,7 13,7 13,5 11,5 5 3 8 4 E 1025,2 43 6 0,0
20.04.2019 09:00:00 11,8 3,0 11,8 13,6 11,5 3 1 18 10 ENE 1025,7 30 10 0,0
20.04.2019 08:00:00 11,7 1,3 8,3 13,7 11,5 3 2 8 4 ESE 1025,6 38 17 0,0
20.04.2019 07:00:00 11,3 1,2 7,3 13,8 11,4 4 2 7 4 ENE 1025,6 47 0 0,0
20.04.2019 06:00:00 11,7 0,7 8,1 13,9 11,5 4 2 9 5 E 1025,5 48 0 0,0
20.04.2019 05:00:00 12,5 0,9 8,1 13,9 11,4 5 3 10 5 E 1025,6 49 0 0,0
20.04.2019 04:00:00 13,2 1,5 9,6 14,0 11,4 5 3 11 6 SE 1025,7 47 0 0,0
20.04.2019 03:00:00 13,7 2,6 10,1 14,1 11,4 8 4 13 7 SE 1025,8 48 0 0,0
20.04.2019 02:00:00 14,0 2,5 10,4 14,1 11,4 8 5 19 10 SSE 1026,1 45 0 0,0
20.04.2019 01:00:00 15,0 3,5 11,0 14,1 11,4 8 5 21 11 S 1026,1 41 0 0,0
20.04.2019 00:00:00 16,4 3,4 12,1 14,0 11,3 11 6 17 9 S 1026,0 41 0 0,0
19.04.2019 23:00:00 17,7 4,6 15,0 14,1 11,4 11 6 19 10 S 1025,5 37 0 0,0
19.04.2019 22:00:00 18,4 5,6 14,8 13,9 11,4 13 7 16 9 ENE 1024,7 43 0 0,0
19.04.2019 21:00:00 19,6 5,3 16,4 13,8 11,4 10 5 19 10 NNE 1023,9 46 6 0,0
19.04.2019 20:00:00 21,4 5,3 20,5 13,7 11,4 12 6 29 16 NNE 1022,8 35 60 0,0
19.04.2019 19:00:00 23,5 4,9 26,3 13,5 11,4 8 5 23 13 N 1022,0 26 60 0,0
19.04.2019 18:00:00 24,3 3,6 27,2 13,3 11,3 10 5 22 12 W 1021,5 49 60 0,0
19.04.2019 17:00:00 24,2 2,9 28,1 13,1 11,3 7 4 25 13 S 1021,4 37 60 0,0
19.04.2019 16:00:00 23,5 3,9 28,7 13,0 11,3 10 6 29 16 SE 1021,8 28 60 0,0
19.04.2019 15:00:00 23,0 4,5 28,1 12,8 11,3 8 4 29 16 ENE 1022,2 25 60 0,0
19.04.2019 14:00:00 22,6 5,5 26,7 12,8 11,3 13 7 35 19 E 1022,2 34 60 0,0
19.04.2019 13:00:00 21,6 5,5 25,1 12,8 11,3 21 11 38 21 E 1022,6 39 60 0,0
19.04.2019 12:00:00 20,6 4,2 24,2 12,7 11,3 16 9 27 15 E 1022,9 20 60 0,0
19.04.2019 11:00:00 18,4 4,2 21,1 12,8 11,3 13 7 26 14 SE 1023,1 46 60 0,0
19.04.2019 10:00:00 17,3 2,8 17,2 12,8 11,3 11 6 22 12 E 1022,9 47 60 0,0
19.04.2019 09:00:00 15,0 1,1 12,8 12,9 11,3 11 6 18 10 E 1022,8 51 40 0,0
19.04.2019 08:00:00 13,5 -0,2 11,3 13,0 11,3 9 5 19 11 E 1022,6 48 0 0,0
19.04.2019 07:00:00 13,7 -1,1 11,4 13,0 11,3 12 6 24 13 SE 1021,7 49 0 0,0
19.04.2019 06:00:00 13,9 -0,9 10,5 13,1 11,2 9 5 18 10 SE 1021,2 50 0 0,0
19.04.2019 05:00:00 14,1 -0,8 10,5 13,2 11,2 8 5 17 9 E 1021,0 49 0 0,0
19.04.2019 04:00:00 13,9 0,2 10,5 13,2 11,2 7 4 24 13 E 1020,4 48 0 0,0
19.04.2019 03:00:00 14,5 0,7 10,8 13,2 11,2 11 6 20 11 ESE 1020,1 46 0 0,0
19.04.2019 02:00:00 14,6 1,8 12,6 13,3 11,2 9 5 24 13 ESE 1020,0 55 0 0,0
19.04.2019 01:00:00 15,1 2,9 12,9 13,3 11,2 8 5 17 9 ESE 1019,9 56 0 0,0
19.04.2019 00:00:00 15,7 3,5 12,5 13,3 11,2 6 3 23 12 ESE 1019,6 55 0 0,0
18.04.2019 23:00:00 15,9 4,6 12,1 13,2 11,2 7 4 15 8 SSE 1019,3 59 0 0,0
18.04.2019 22:00:00 16,4 5,0 11,6 13,2 11,2 9 5 17 9 S 1018,6 60 0 0,0
18.04.2019 21:00:00 17,3 4,9 13,0 13,0 11,2 8 4 18 10 S 1017,6 60 2 0,0
18.04.2019 20:00:00 19,2 6,0 18,4 12,9 11,2 9 5 20 11 SSE 1016,5 60 60 0,0
18.04.2019 19:00:00 20,7 5,9 21,9 12,7 11,1 14 8 27 15 S 1015,9 56 60 0,0
18.04.2019 18:00:00 21,2 5,5 23,1 12,6 11,1 17 9 34 19 SSE 1015,6 58 60 0,0
18.04.2019 17:00:00 21,7 5,6 25,2 12,4 11,2 22 12 40 22 S 1015,4 42 60 0,0
18.04.2019 16:00:00 21,5 7,3 26,4 12,3 11,2 18 10 39 21 S 1015,7 49 60 0,0
18.04.2019 15:00:00 21,4 6,1 25,8 12,2 11,1 14 8 31 17 S 1015,3 54 60 0,0
18.04.2019 14:00:00 20,3 5,5 24,9 12,1 11,1 13 7 27 15 SSE 1015,3 52 60 0,0
18.04.2019 13:00:00 19,6 6,3 23,0 12,1 11,1 11 6 27 15 SE 1015,3 20 60 0,0
18.04.2019 12:00:00 17,9 5,5 21,0 12,0 11,1 12 6 24 13 SSE 1015,8 60 54 0,0
18.04.2019 11:00:00 16,5 4,2 20,1 12,1 11,1 13 7 24 13 SE 1016,1 58 60 0,0
18.04.2019 10:00:00 15,5 3,6 14,9 12,1 11,1 9 5 19 10 E 1016,3 56 57 0,0
18.04.2019 09:00:00 13,0 3,1 11,8 12,2 11,1 10 5 15 8 E 1016,4 54 56 0,0
18.04.2019 08:00:00 11,7 2,7 9,8 12,3 11,1 10 5 19 10 E 1015,9 56 18 0,0
18.04.2019 07:00:00 11,5 2,5 9,9 12,3 11,1 13 7 23 12 E 1015,0 60 0 0,0
18.04.2019 06:00:00 11,5 2,5 8,9 12,4 11,1 14 8 22 12 E 1014,8 60 0 0,0
18.04.2019 05:00:00 11,4 2,4 9,4 12,4 11,1 12 7 21 11 E 1015,4 60 0 0,0
18.04.2019 04:00:00 11,6 2,6 9,8 12,5 11,1 15 8 20 11 E 1015,2 60 0 0,0
18.04.2019 03:00:00 12,0 3,0 10,6 12,5 11,1 14 8 22 12 ESE 1015,4 60 0 0,0
18.04.2019 02:00:00 12,6 3,8 11,3 12,5 11,1 13 7 32 18 SE 1015,7 60 0 0,0
18.04.2019 01:00:00 13,4 4,8 12,3 12,5 11,1 20 11 40 21 ESE 1015,1 60 0 0,0
18.04.2019 00:00:00 14,1 5,2 13,1 12,5 11,0 16 9 31 17 ESE 1014,7 60 0 0,0
17.04.2019 23:00:00 14,5 5,3 13,0 12,5 11,1 13 7 37 20 SE 1014,9 59 0 0,0
17.04.2019 22:00:00 15,7 5,9 14,2 12,4 11,0 21 11 37 20 SSE 1014,4 60 0 0,0
17.04.2019 21:00:00 16,6 7,8 15,3 12,3 11,0 12 7 23 13 SE 1013,6 60 0 0,0
17.04.2019 20:00:00 17,7 7,7 16,1 12,2 11,0 11 6 25 14 S 1013,1 34 0 0,0
17.04.2019 19:00:00 19,0 6,8 19,1 12,0 11,0 14 8 29 16 SSE 1012,9 15 0 0,0
17.04.2019 18:00:00 19,9 5,5 20,7 11,9 11,0 17 9 37 20 SSE 1013,0 48 42 0,0
17.04.2019 17:00:00 20,6 4,2 22,6 11,8 11,1 17 9 35 19 SE 1013,0 47 30 0,0
17.04.2019 16:00:00 20,0 3,6 20,9 11,7 11,0 14 7 30 16 SE 1013,4 51 24 0,0
17.04.2019 15:00:00 19,7 3,0 22,1 11,6 11,0 16 9 29 16 SSE 1013,9 49 46 0,0
17.04.2019 14:00:00 18,3 3,3 21,0 11,6 11,0 14 8 30 16 ESE 1014,6 55 47 0,0
17.04.2019 13:00:00 17,1 4,4 19,6 11,5 11,0 16 8 28 15 ESE 1015,5 57 31 0,0
17.04.2019 12:00:00 16,0 5,0 18,3 11,5 11,0 19 10 34 19 E 1015,9 55 50 0,0
17.04.2019 11:00:00 14,7 5,5 15,7 11,6 11,0 18 10 29 15 E 1016,5 42 60 0,0
17.04.2019 10:00:00 11,7 4,9 11,2 11,6 11,0 14 8 26 14 E 1017,0 47 58 0,0
17.04.2019 09:00:00 8,8 4,2 6,4 11,7 11,0 12 6 21 11 E 1017,7 32 40 0,0
17.04.2019 08:00:00 6,6 3,9 6,0 11,8 11,0 9 5 23 12 ENE 1018,3 57 0 0,0
17.04.2019 07:00:00 7,2 4,2 6,3 11,9 11,0 11 6 17 9 ENE 1018,1 60 0 0,0
17.04.2019 06:00:00 7,4 4,4 6,1 11,9 11,0 9 5 17 9 ENE 1018,4 60 0 0,0
17.04.2019 05:00:00 7,0 4,3 5,8 12,0 11,0 11 6 16 9 NE 1018,7 59 0 0,0
17.04.2019 04:00:00 7,1 4,4 6,1 12,0 11,0 11 6 14 8 NE 1019,3 58 0 0,0

tt = Température de l'air
td = dewpoint
tt 5cm = Température de l'air 5cm
tt -20cm = Température de l'air -20cm
tt -100cm = Température de l'air -100cm
ff = Vitesse du vent
fx = gusts
dd = Direction du vent
ppp = reduced air pressure
vv = visibility
sd = Ensoleillement
rr = Quantités de précipitations

stations d'obs. à proximité